ポンス-ブルックス彗星

12P/Pons-Brooks (2024)

English version
Home page
Updated on November 7, 2024

---------------------------------------------------------------------

・ プロフィール

検出日 2020年6月10日
検出光度 22.8等
検出者 M. M. Knight, C. E. Holt, Q.-Z. Ye, L. M. Feaga, M. S. P. Kelley, L. Shumar, J. Sanborn, A. Hayslip (Lowell Observatory)

・ 写真集

・ 軌道要素

Epoch 2024 Oct. 17.0 TT = JDT 2460600.5
T 2024 Apr. 21.12544 TT                                 Rudenko
q   0.7808148            (2000.0)            P               Q
n   0.01382906     Peri.  198.99031     +0.14510998     -0.32929564
a  17.1899354      Node   255.85553     +0.98566424     +0.13014945
e   0.9545772      Incl.   74.19215     +0.08607609     -0.93521415
P  71.3
>From 4468 observations 2023 Oct. 1-2024 Aug. 26, mean residual 0".6.
     Nongravitational parameters A1 = +0.72, A2 = -0.2212.

・ 星図

・ 光度変化

        H = 12.5  G = 0.15                       [    ,-840]  (              〜2022年 1月 2日)
        m1 = 5.0 + 5 logΔ + 13.5 log r          [-840,-276]  (2022年 1月 2日〜2023年 7月20日)
        m1 = 9.0 + 5 logΔ +  0.0 log r          [-276,-158]  (2023年 7月20日〜2023年11月15日)
        m1 = 8.5 + 5 logΔ -  5.0 log r          [-158,-100]  (2023年11月15日〜2024年 1月12日)
        m1 = 4.6 + 5 logΔ +  9.5 log r          [-100,  14]  (2024年 1月12日〜2024年 5月 5日)
        m1 = 4.3 + 5 logΔ + 11.0 log r(t + 10)  [  14,    ]  (2024年 5月 5日〜              )

---------------------------------------------------------------------

軌道要素はM.P.E.C. 2024-R10に掲載されたものです。
星図はステラナビゲータ Ver.10 (アストロアーツ) で作成したものです。
光度グラフはComet for Windowsで作成したものです。

---------------------------------------------------------------------

Copyright(C) Seiichi Yoshida (comet@aerith.net). All rights reserved.